www.pogodaiklimat.ru

Погода и климат >> Архив погоды >> Россия >> Чечня >> Наурская


ПОГОДА в Наурской

  • Прогноз погоды в Наурской
  • Монитор погоды в Наурской

АРХИВ ПОГОДЫ в Наурской

Время (UTC), дата Ветер
(напр.,м/с)
 
Видим.   Явления Облачность Т
(С)
Тd
(С)
f
(%)
Тe
(С)
Тes
(С)
Комфортность P
(гПа)
Po
(гПа)
Тmin
(С)
Tmax
(С)
R
(мм)
R24
(мм)
S
(см)
06 11.07 З 1 20 км 9/5 600 м
[Cb cap Ac inh]
+23.3 +16.3 65 +28 +31 душно 1004.8 995.7
09 11.07 СЗ 2 20 км 8/4 600 м
[Cb cap Ac inh]
+26.9 +17.9 58 +31 +37 душно 1001.5 992.5
12 11.07 В 4 20 км 3/0
[Ac und]
+32.4 +16.7 39 +36 +42 очень
душно
999.1 990.3
15 11.07 В 1 20 км 9/4 600 м
[Cb cap Ac inh]
+32.3 +17.3 41 +36 +36 очень
душно
999.0 990.2 +33.5
18 11.07 В 2 20 км 9/6 600 м
[Cb cap Ac inh]
+26.5 +18.0 60 +31 +31 душно 1000.4 991.5
21 11.07 З 3 10 км 9/5 600 м
[Cb cap Ac inh]
+23.1 +18.3 74 +29 +29 очень
душно
1001.2 992.2
00 12.07 З 6 10 км ясно +21.6 +14.5 64 +25 +25 комфорт 1001.0 992.0
03 12.07 З 5 20 км 8/4 600 м
[Cb cap Ac inh]
+20.1 +14.3 69 +22 +22 комфорт 1001.1 992.0 +20.1
06 12.07 З 5 20 км 10/6 600 м
[Cb cap Ac inh]
+20.7 +15.5 72 +24 +25 комфорт 1002.2 993.0
09 12.07 З 4 20 км {ливн. осадки} 10/6 600 м
[Cb cap Ac inh]
+19.6 +16.1 80 +22 +23 комфорт 1004.8 995.6
12 12.07 СЗ 4 20 км 10/8 600 м
[Cb cap Ac inh]
+21.6 +14.7 65 +25 +25 комфорт 1006.4 997.3
15 12.07 СЗ 5 20 км 10/5 600 м
[Cb cap Ac inh]
+22.0 +13.8 60 +25 +25 комфорт 1008.1 998.8 +22.8 0.0
18 12.07 СЗ 1 10 км 9/6 600 м
[Cb cap Ac inh]
+19.8 +13.7 68 +23 +23 комфорт 1010.4 1001.1
21 12.07 З 1 10 км ясно +18.4 +13.7 74 +20 +20 1010.2 1000.8
00 13.07 СЗ 1 10 км ясно +17.2 +14.1 82 +18 +18 1010.0 1000.6
03 13.07 ЮЗ 1 20 км {ливн. осадки} 10/6 600 м
[Cb cap Ac inh]
+16.6 +14.9 90 +17 +18 1010.1 1000.6 +16.6 0.7
06 13.07 В 1 10 км слаб. ливневой дождь 10/8 600 м
[Cb cap Ac inh]
+17.0 +15.3 90 +18 +19 1010.4 1000.9
09 13.07 СВ 2 20 км {ливн. осадки} 8/3 1000 м
[Cu med, cong Ac As Ci sp]
+22.6 +12.2 52 +25 +34 комфорт 1010.4 1001.1
12 13.07 В 1 20 км 6/6 1000 м
[Cu med, cong]
+25.2 +11.7 43 +27 +32 жарко 1009.3 1000.1
15 13.07 В 1 20 км 3/3 1000 м
[Cu med, cong]
+25.0 +11.0 41 +26 +27 жарко 1009.3 1000.1 +25.8 3
18 13.07 З 1 10 км 8/0
[Ac As]
+20.7 +14.9 69 +25 +25 комфорт 1010.4 1001.1
21 13.07 ЮЗ 1 10 км 8/0
[Ac As]
+20.2 +15.5 74 +24 +24 комфорт 1009.8 1000.5
00 14.07 СЗ 1 10 км 8/0
[Ac As]
+19.0 +16.2 84 +22 +22 комфорт 1009.8 1000.4
03 14.07 З 1 20 км {ливн. осадки} 10/5 600 м
[Cb cap Ac inh]
+18.6 +15.4 82 +21 +21 комфорт 1010.0 1000.6 +18.6 0.0
06 14.07 З 3 20 км 10/4 600 м
[Cb cap Ac inh]
+19.5 +15.6 78 +22 +23 комфорт 1011.0 1001.7
09 14.07 З 3 20 км 10/5 600 м
[Cb cap Ac inh]
+19.2 +15.1 77 +21 +23 комфорт 1011.3 1002.0
12 14.07 штиль 0 20 км 8/6 600 м
[Cb cap Ac inh]
+25.4 +13.5 48 +28 +32 жарко 1010.2 1001.0
15 14.07 В 1 20 км 9/0 600 м
[Cc]
+24.9 +13.1 48 +27 +28 жарко 1009.8 1000.6 +26.3
18 14.07 Ю 2 10 км ясно +18.0 +14.2 78 +19 +19 1010.0 1000.6
21 14.07 В 1 10 км ясно +15.0 +12.8 87 +15 +15 1008.8 999.3
00 15.07 В 1 10 км 10/0
[Ac As]
+16.6 +13.9 84 +17 +17 1007.7 998.2
03 15.07 штиль 0 20 км 3/0
[Ci sp]
+18.0 +14.4 79 +18 +20 1007.0 997.6 +14.1
06 15.07 Ю 3 20 км ясно +22.5 +14.0 59 +26 +36 жарко 1005.7 996.6
09 15.07 В 5 20 км ясно +28.7 +14.1 41 +31 +41 жарко 1003.4 994.4
12 15.07 ЮВ 2 20 км ясно +28.8 +15.3 44 +32 +43 душно 1002.2 993.2
15 15.07 В 5 20 км ясно +25.6 +15.8 55 +29 +30 душно 1001.7 992.7 +29.3
18 15.07 В 2 10 км 9/5 600 м
[Cb cap Ac inh]
+21.9 +15.9 69 +26 +26 душно 1014.0 994.9
21 15.07 В 1 10 км 10/6 600 м
[Cb cap Ac inh]
+21.3 +16.5 74 +25 +25 комфорт 1005.1 996.0
00 16.07 ЮВ 2 10 км ясно +20.2 +16.2 78 +24 +24 комфорт 1004.8 995.6
03 16.07 штиль 0 20 км 3/0
[Ac und]
+20.5 +16.9 80 +24 +25 комфорт 1004.7 995.5 +20.2
06 16.07 С 3 20 км 8/4 600 м
[Cb cap Ac inh]
+24.5 +16.9 63 +28 +31 душно 1005.2 996.1
09 16.07 СЗ 4 20 км 6/3 600 м
[Cu med, cong Ac und]
+28.1 +16.2 48 +31 +38 душно 1004.9 995.9
12 16.07 СЗ 3 20 км 5/3 600 м
[Cu med, cong Ac und]
+31.0 +14.5 37 +33 +38 душно 1005.0 995.1
15 16.07 СЗ 2 20 км ясно +31.1 +13.8 35 +33 +34 душно 1004.0 995.1 +31.5
18 16.07 штиль 0 10 км ясно +25.3 +16.4 58 +29 +29 душно 1005.6 996.6
21 16.07 ЮЗ 2 10 км ясно +23.6 +16.6 65 +27 +27 жарко 1007.6 998.4
00 17.07 ЮЗ 4 10 км гроза без осадков 10/6 600 м
[Cb cap Ac inh]
+21.8 +16.0 70 +26 +26 душно 1009.1 999.8
03 17.07 З 2 20 км {гроза} 10/6 600 м
[Cb cap Ac inh]
+21.7 +15.7 69 +25 +25 комфорт 1010.7 1001.4 +21.7
06 17.07 С 2 20 км {гроза} 10/5 600 м
[Cb cap Ac inh]
+22.6 +13.9 58 +26 +28 жарко 1010.4 1001.1
09 17.07 СЗ 3 20 км 8/3 600 м
[Cb cap Ac inh]
+26.2 +13.9 47 +28 +34 жарко 1008.6 999.5
12 17.07 ЮЗ 2 20 км 8/0
[Ac und]
+28.7 +12.8 38 +30 +35 жарко 1007.5 998.4
15 17.07 З 2 20 км 10/4 600 м
[Cb cap Ac inh]
+27.8 +13.3 41 +30 +30 жарко 1006.9 997.8 +29.5
18 17.07 ЮЗ 2 10 км 10/5 600 м
[Cb cap Ac inh]
+25.1 +15.4 55 +28 +28 жарко 1007.6 998.5
21 17.07 СЗ 1 10 км 10/4 600 м
[Cb cap Ac inh]
+22.1 +16.7 71 +26 +26 душно 1007.1 997.8
00 18.07 З 1 10 км ясно +18.7 +16.0 84 +21 +21 комфорт 1006.3 997.0
03 18.07 ЮЗ 1 20 км 5/0
[Ac cast]
+20.2 +17.3 83 +24 +25 комфорт 1006.5 997.3 +18.7

 

Местоположение метеостанции Наурская (Чечня, Россия): широта 43.65 долгота 45.32 высота над уровнем моря 80 м.

В архиве по умолчанию представлена погода в Наурской за последнюю неделю. Архивные данные за месяц целиком и за предыдущие месяцы, начиная с января 2011 года, Вы можете получить, выбрав интересующий диапазон дат из раскрывающегося списка и нажав кнопку "Ввод!".


*Определитесь, кто Вы:
робот инопланетянин человек

Внимание! Время в таблицах - всемирное. Для получения местного времени необходимо прибавить поправку, которая равна 3 ч.

Смотрите также архив погоды в соседних городах и на ближайших метеорологических станциях:

Погода в Моздоке (Северная Осетия, Россия) (53 км)
Погода в Грозном (Чечня, Россия) (55 км)
Погода в Рощино (Ставропольский край, Россия) (56 км)
Погода в Назрани (Ингушетия, Россия) (67 км)
Погода в Терекли-Мектебе (Дагестан, Россия) (70 км)
Погода в Гудермесе (Чечня, Россия) (73 км)
Погода в Шелковской (Чечня, Россия) (86 км)
Погода в Владикавказе (Северная Осетия, Россия) (86 км)
Погода в Шатое (Чечня, Россия) (90 км)
Погода в Прохладный (Кабардино-Балкария, Россия) (103 км)

Пояснения к столбцам:

Ветер - указаны скорость ветра в м/с - средняя за 10 мин, порывы в срок и между сроками (в фигурных скобках) и направление, откуда дует ветер: С - северный, СВ - северо-восточный, В - восточный, ЮВ - юго-восточный, Ю - южный, ЮЗ - юго-западный, З - западный, СЗ - северо-западный.
Видимость - горизонтальная дальность видимости в метрах или километрах. При видимости от 1 до 10 км при отсутствии осадков обычно наблюдается дымка, при ухудшении видимости до 1 км и менее - туман. В сухую погоду видимость может ухудшаться дымом, пылью или мглою.
Явления - указаны атмосферные явления, наблюдавшиеся в срок или в последний час перед сроком; фигурными скобками обозначены явления, наблюдавшиеся между сроками (за 1-3 часа до срока); квадратными скобками обозначены град или гололедные отложения с указанием их диаметра в мм.
Облачность - указаны через наклонную черту общая и нижняя облачность в баллах и высота нижней границы облаков в метрах; квадратными скобками обозначены формы облаков: Ci - перистые, Cs - перисто-слоистые, Cc - перисто-кучевые, Ac - высококучевые, As - высокослоистые, Sc - слоисто-кучевые, Ns - слоисто-дождевые, Cu - кучевые, Cb - кучево-дождевые. Подробнее классификацию облаков см. в Атласе облаков (PDF).
T - Температура воздуха - температура, измеренная на высоте 2 м над землей.
Td - Температура точки росы - температура, при понижении до которой содержащийся в воздухе водяной пар достигнет насыщения.
f - Относительная влажность воздуха - влажноcть воздуха, измеренная на высоте 2 м над землей.
Te - Эффективная температура - температура, которую ощущает одетый по сезону человек в тени. Характеристика душности погоды. При расчете учитывается влияние влажности воздуха и скорости ветра на теплоощущения человека.
Tes - Эффективная температура на солнце - температура, которую ощущает человек, с поправкой на солнечный нагрев. Характеристика знойности погоды. Зависит от высоты солнца над горизонтом, облачности и скорости ветра. Ночью, в пасмурную погоду, а также при ветре 12 м/с и более поправка равна нулю.
P - Атмосферное давление - приведенное к уровню моря атмосферное давление.
Po - Атмосферное давление - измеренное на уровне метеостанции атмосферное давление.
Tmin - Минимальная температура - минимум температуры воздуха на высоте 2 м над землей.
Tmax - Максимальная температура - максимум температуры воздуха на высоте 2 м над землей.
R - Количество осадков - Количество выпавших осадков за период времени, мм. При наведении курсора мыши на число - период времени, за который выпало указанное количество осадков.
R24 - Количество осадков - Количество выпавших осадков за 24 часа, мм.
S - Снежный покров - Высота снежного покрова, см. При наведении курсора мыши на число - состояние снежного покрова и степень покрытия местности в баллах.